User: anonymous   Login
Location: Unspecified
(0.0000°N, 0.0000°E)
Time: 15:29:21
(UTC+01:00)
Language:

SWIFT - Orbit

View from above orbital plane
View from above orbital plane
View from above satellite
View from above satellite

Ground track
Ground track

The orbit data is extracted from the following two-line orbital elements,

1 28485U 04047A   16038.23870529  .00002861  00000-0  17575-3 0  9991
2 28485  20.5584 359.8052 0011907  97.4065 262.7721 15.02778225613471
Epoch (UTC): 07 February 2016 05:43:44
Eccentricity: 0.0011907
inclination: 20.5584°
perigee height: 550 km
apogee height: 566 km
right ascension of ascending node: 359.8052°
argument of perigee: 97.4065°
revolutions per day: 15.02778225
mean anomaly at epoch: 262.7721°
orbit number at epoch: 61347

The dashed part of the orbit path shows where the satellite is in the earth's shadow,  

DLR